DL2GPS-3 Weather Reports


time (UTC)temp
C
wind
direction
speed
KPH
gust
KPH
rain 1hr
cm
rain 24hr
cm
rain mn
cm
humidity
%
barometer
mb
20260502162635 20 24.1 25.7 0.00 0.00 0.00 45 1020.1
20260502161634 20 24.1 27.4 0.00 0.00 0.00 44 1020.3
20260502160633 20 24.1 25.7 0.00 0.00 0.00 42 1020.3
20260502151628 21 24.1 25.7 0.00 0.00 0.00 43 1020.7
20260502150628 21 24.1 25.7 0.00 0.00 0.00 43 1020.8
20260502130619 21 24.1 25.7 0.00 0.00 0.00 45 1022.2
20260502123617 22 24.1 25.7 0.00 0.00 0.00 42 1022.4
20260502122616 23 24.1 25.7 0.00 0.00 0.00 40 1022.5
20260502121616 22 24.1 25.7 0.00 0.00 0.00 41 1022.6
20260502120615 21 24.1 25.7 0.00 0.00 0.00 42 1022.7
20260502115614 21 24.1 27.4 0.00 0.00 0.00 42 1022.7
20260502114613 21 24.1 27.4 0.00 0.00 0.00 40 1022.9
20260502113612 21 24.1 27.4 0.00 0.00 0.00 42 1023.0
20260502112611 21 24.1 25.7 0.00 0.00 0.00 42 1023.2
20260502111609 22 24.1 25.7 0.00 0.00 0.00 37 1023.2
20260502110609 21 24.1 27.4 0.00 0.00 0.00 36 1023.3
20260502105607 23 25.7 24.1 0.00 0.00 0.00 32 1023.5
20260502104606 22 24.1 25.7 0.00 0.00 0.00 34 1023.4
20260502103605 22 24.1 25.7 0.00 0.00 0.00 34 1023.5
20260502102605 21 24.1 25.7 0.00 0.00 0.00 34 1023.6
20260502101603 23 24.1 25.7 0.00 0.00 0.00 32 1023.8
20260502100602 23 24.1 27.4 0.00 0.00 0.00 31 1023.9
20260502090558 23 24.1 24.1 0.00 0.00 0.00 28 1024.3
20260502070548 25 24.1 27.4 0.00 0.00 0.00 27 1024.4
20260502065547 24 24.1 25.7 0.00 0.00 0.00 28 1024.5
20260502064546 23 24.1 25.7 0.00 0.00 0.00 29 1024.5
20260502063545 23 24.1 25.7 0.00 0.00 0.00 29 1024.5
20260502062545 25 24.1 27.4 0.00 0.00 0.00 28 1024.4
20260502061544 27 24.1 25.7 0.00 0.00 0.00 25 1024.4
20260502060543 28 24.1 25.7 0.00 0.00 0.00 24 1024.4
20260502055542 26 24.1 25.7 0.00 0.00 0.00 26 1024.4
20260502054542 27 24.1 27.4 0.00 0.00 0.00 24 1024.4
20260502053541 25 24.1 27.4 0.00 0.00 0.00 28 1024.4
20260502052540 25 24.1 27.4 0.00 0.00 0.00 27 1024.4
20260502051540 30 24.1 27.4 0.00 0.00 0.00 21 1024.3
20260502050539 30 24.1 25.7 0.00 0.00 0.00 22 1024.2
20260502045539 28 24.1 27.4 0.00 0.00 0.00 23 1024.1
20260502044538 25 24.1 25.7 0.00 0.00 0.00 26 1024.1
20260502043538 23 24.1 25.7 0.00 0.00 0.00 28 1024.1
20260502042537 17 24.1 27.4 0.00 0.00 0.00 36 1024.2
20260502041537 12 24.1 27.4 0.00 0.00 0.00 47 1024.3
20260502040536 8 24.1 25.7 0.00 0.00 0.00 58 1024.5
20260502035535 8 25.7 25.7 0.00 0.00 0.00 58 1024.5
20260502034533 8 24.1 27.4 0.00 0.00 0.00 62 1024.5
20260502033533 7 24.1 25.7 0.00 0.00 0.00 64 1024.5
20260502032532 7 24.1 24.1 0.00 0.00 0.00 62 1024.5
20260502031530 7 24.1 25.7 0.00 0.00 0.00 62 1024.6
20260502030529 7 24.1 25.7 0.00 0.00 0.00 60 1024.7
20260502025528 8 24.1 25.7 0.00 0.00 0.00 58 1024.7
20260502024527 8 25.7 25.7 0.00 0.00 0.00 57 1024.7
20260502023527 8 24.1 27.4 0.00 0.00 0.00 55 1024.7
20260502022526 8 24.1 25.7 0.00 0.00 0.00 55 1024.7
20260502021525 8 24.1 25.7 0.00 0.00 0.00 56 1024.7
20260502020524 8 24.1 27.4 0.00 0.00 0.00 55 1024.8
20260502015524 8 24.1 27.4 0.00 0.00 0.00 56 1024.8
20260502014523 9 24.1 25.7 0.00 0.00 0.00 53 1024.8
20260502013522 9 24.1 27.4 0.00 0.00 0.00 52 1024.9
20260502012521 9 24.1 25.7 0.00 0.00 0.00 52 1025.0
20260502011520 9 24.1 27.4 0.00 0.00 0.00 52 1025.0
20260502010519 10 24.1 25.7 0.00 0.00 0.00 51 1025.1
20260502005518 10 24.1 25.7 0.00 0.00 0.00 50 1025.1
20260502004517 10 25.7 25.7 0.00 0.00 0.00 49 1025.1
20260502003516 10 24.1 27.4 0.00 0.00 0.00 48 1025.1
20260502002516 10 25.7 25.7 0.00 0.00 0.00 48 1025.3
20260502001515 10 24.1 27.4 0.00 0.00 0.00 48 1025.3
20260502000515 10 24.1 25.7 0.00 0.00 0.00 48 1025.5
20260501235514 10 24.1 25.7 0.00 0.00 0.00 47 1025.5
20260501234513 10 24.1 27.4 0.00 0.00 0.00 47 1025.6
20260501233513 10 24.1 25.7 0.00 0.00 0.00 48 1025.6
20260501232512 10 24.1 27.4 0.00 0.00 0.00 47 1025.6
20260501231511 10 24.1 25.7 0.00 0.00 0.00 47 1025.7
20260501230510 11 24.1 27.4 0.00 0.00 0.00 47 1025.7
20260501225510 10 25.7 25.7 0.00 0.00 0.00 46 1025.7
20260501224508 11 24.1 27.4 0.00 0.00 0.00 45 1025.8
20260501223507 11 24.1 25.7 0.00 0.00 0.00 45 1025.8
20260501222506 11 25.7 27.4 0.00 0.00 0.00 44 1025.9
20260501221505 11 24.1 24.1 0.00 0.00 0.00 44 1026.0
20260501220504 11 24.1 25.7 0.00 0.00 0.00 43 1025.9
20260501215503 11 0.0 27.4 0.00 0.00 0.00 42 1025.9
20260501215039 11 24.1 25.7 0.00 0.00 0.00 42 1025.9
20260501214035 11 24.1 27.4 0.00 0.00 0.00 41 1025.8
20260501213030 11 24.1 25.7 0.00 0.00 0.00 41 1025.7
20260501212026 12 24.1 25.7 0.00 0.00 0.00 41 1025.7
20260501211020 12 24.1 27.4 0.00 0.00 0.00 40 1025.7
20260501210016 12 24.1 25.7 0.00 0.00 0.00 39 1025.7
20260501205011 12 25.7 25.7 0.00 0.00 0.00 38 1025.7
20260501204006 12 24.1 25.7 0.00 0.00 0.00 38 1025.8
20260501203001 12 24.1 25.7 0.00 0.00 0.00 37 1025.9
20260501201956 13 24.1 25.7 0.00 0.00 0.00 36 1025.8
20260501200951 13 24.1 25.7 0.00 0.00 0.00 37 1025.7
20260501195947 12 25.7 25.7 0.00 0.00 0.00 37 1025.7
20260501194941 13 24.1 25.7 0.00 0.00 0.00 37 1025.6
20260501193937 13 24.1 27.4 0.00 0.00 0.00 37 1025.7
20260501192932 12 24.1 25.7 0.00 0.00 0.00 37 1025.5
20260501191927 13 24.1 25.7 0.00 0.00 0.00 36 1025.5
20260501190921 13 24.1 27.4 0.00 0.00 0.00 38 1025.6
20260501185916 13 24.1 25.7 0.00 0.00 0.00 35 1025.5
20260501184911 13 24.1 25.7 0.00 0.00 0.00 35 1025.4
20260501183906 14 24.1 25.7 0.00 0.00 0.00 34 1025.4
20260501182900 15 24.1 25.7 0.00 0.00 0.00 34 1025.4
20260501181856 15 24.1 25.7 0.00 0.00 0.00 34 1025.3
20260501180851 15 24.1 27.4 0.00 0.00 0.00 33 1025.1
20260501175846 15 24.1 25.7 0.00 0.00 0.00 32 1025.1
20260501174840 16 25.7 25.7 0.00 0.00 0.00 32 1025.1
20260501173835 16 24.1 25.7 0.00 0.00 0.00 31 1025.0
20260501172830 16 24.1 27.4 0.00 0.00 0.00 30 1024.9
20260501171825 17 24.1 25.7 0.00 0.00 0.00 29 1025.0
20260501170820 17 24.1 27.4 0.00 0.00 0.00 28 1025.0
20260501165816 17 24.1 25.7 0.00 0.00 0.00 27 1024.9
20260501164811 18 24.1 25.7 0.00 0.00 0.00 27 1024.9
20260501163807 18 24.1 25.7 0.00 0.00 0.00 25 1025.0